GW3883 Weather Reports


time (UTC)temp
F
wind
direction
speed
knots
gust
knots
rain 1hr
in
rain 24hr
in
rain mn
in
humidity
%
barometer
mb
20260506150422 74 217 7.0 8.7 0.00 0.00 0.00 66 1018.4
20260506144519 74 214 2.6 6.1 0.00 0.00 0.00 68 1018.4
20260506142521 72 265 1.7 4.3 0.00 0.00 0.00 71 1018.0
20260506140521 71 245 0.9 3.5 0.00 0.00 0.00 72 1018.0
20260506140422 71 211 3.5 5.2 0.00 0.00 0.00 71 1018.0
20260506135519 71 231 3.5 7.0 0.00 0.00 0.00 72 1018.1
20260506134520 70 204 7.0 7.8 0.00 0.00 0.00 74 1018.1
20260506132521 70 243 1.7 6.1 0.00 0.00 0.00 75 1018.0
20260506131520 69 180 5.2 8.7 0.00 0.00 0.00 77 1018.0
20260506130523 69 256 1.7 2.6 0.00 0.00 0.00 78 1018.0
20260506125520 69 202 4.3 6.1 0.00 0.00 0.00 80 1017.8
20260506124519 67 189 4.3 7.0 0.00 0.00 0.00 84 1017.8
20260506123524 66 201 2.6 4.3 0.00 0.00 0.00 86 1017.8
20260506122520 65 209 4.3 5.2 0.00 0.00 0.00 88 1017.6
20260506121521 63 180 4.3 5.2 0.00 0.00 0.00 90 1017.5
20260506120520 61 180 2.6 3.5 0.00 0.00 0.00 94 1017.3
20260506115521 60 180 2.6 3.5 0.00 0.00 0.00 94 1017.4
20260506115422 60 180 3.5 4.3 0.00 0.00 0.00 94 1017.3
20260506114321 59 180 2.6 3.5 0.00 0.00 0.00 95 1017.5
20260506113419 59 180 2.6 3.5 0.00 0.00 0.00 95 1017.2
20260506112419 58 180 1.7 2.6 0.00 0.00 0.00 94 1017.2
20260506111421 58 180 0.9 1.7 0.00 0.00 0.00 94 1017.2
20260506110420 58 180 1.7 1.7 0.00 0.00 0.00 95 1017.0
20260506105422 58 180 0.9 1.7 0.00 0.00 0.00 93 1016.8
20260506104520 57 180 0.0 0.9 0.00 0.00 0.00 93 1016.8
20260506100721 58 180 0.0 0.0 0.00 0.00 0.00 93 1017.2
20260506095722 58 180 0.0 0.0 0.00 0.00 0.00 92 1017.0
20260506094722 58 180 0.0 0.0 0.00 0.00 0.00 92 1016.9
20260506093735 58 180 0.0 0.9 0.00 0.00 0.00 92 1016.9
20260506092721 58 180 0.0 0.9 0.00 0.00 0.00 92 1016.9
20260506091719 58 180 0.0 0.0 0.00 0.00 0.00 92 1016.9
20260506090719 58 180 0.9 1.7 0.00 0.00 0.00 91 1016.6
20260506085721 58 180 0.9 1.7 0.00 0.00 0.00 89 1017.0
20260506084720 58 180 0.0 0.0 0.00 0.00 0.00 90 1017.2
20260506083721 58 180 0.0 0.0 0.00 0.00 0.00 89 1017.1
20260506082820 59 180 0.0 0.9 0.00 0.00 0.00 88 1017.0
20260506081819 59 180 0.0 0.0 0.00 0.00 0.00 88 1017.3
20260506080721 59 180 0.0 0.0 0.00 0.00 0.00 88 1017.6
20260506072719 59 180 0.0 0.0 0.00 0.00 0.00 88 1017.1
20260506071720 59 180 0.9 1.7 0.00 0.00 0.00 87 1017.0
20260506070819 59 180 0.9 1.7 0.00 0.00 0.00 87 1016.9
20260506061919 61 225 1.7 3.5 0.00 0.00 0.00 84 1017.7
20260506060922 61 180 1.7 2.6 0.00 0.00 0.00 82 1017.7
20260506051021 61 180 1.7 3.5 0.00 0.00 0.00 82 1017.5
20260506045119 61 180 2.6 3.5 0.00 0.00 0.00 82 1017.9
20260506044121 61 180 3.5 5.2 0.00 0.00 0.00 80 1017.9
20260506043120 62 180 4.3 6.1 0.00 0.00 0.00 81 1018.0
20260506042119 61 180 1.7 1.7 0.00 0.00 0.00 82 1018.2
20260506040120 62 360 0.0 0.9 0.00 0.00 0.00 81 1018.6
20260506035126 62 180 1.7 2.6 0.00 0.00 0.00 80 1018.3
20260506034224 62 180 1.7 2.6 0.00 0.00 0.00 80 1018.1
20260506032226 63 180 0.9 1.7 0.00 0.00 0.00 78 1018.0
20260506030324 64 180 2.6 4.3 0.00 0.00 0.00 77 1018.2
20260506025327 64 180 2.6 3.5 0.00 0.00 0.00 76 1018.1
20260506024328 64 180 1.7 2.6 0.00 0.00 0.00 74 1018.2
20260506023326 65 180 1.7 2.6 0.00 0.00 0.00 74 1018.0
20260506022325 65 180 2.6 3.5 0.00 0.00 0.00 74 1018.2
20260506021327 65 180 3.5 5.2 0.00 0.00 0.00 73 1018.3
20260506020326 66 180 3.5 5.2 0.00 0.00 0.00 73 1018.3
20260506020226 66 180 4.3 5.2 0.00 0.00 0.00 72 1018.3
20260506015226 66 180 3.5 4.3 0.00 0.00 0.00 72 1018.2
20260506014225 66 180 3.5 5.2 0.00 0.00 0.00 72 1017.9
20260506013225 67 180 3.5 5.2 0.00 0.00 0.00 70 1017.9
20260506012227 67 180 5.2 6.1 0.00 0.00 0.00 70 1017.8
20260506012126 67 180 5.2 6.1 0.00 0.00 0.00 70 1017.8
20260506011126 68 179 4.3 5.2 0.00 0.00 0.00 69 1017.6
20260506011024 68 174 3.5 6.1 0.00 0.00 0.00 69 1017.5
20260506005125 68 181 5.2 10.4 0.00 0.00 0.00 68 1017.3
20260506004224 69 202 5.2 6.1 0.00 0.00 0.00 67 1017.5
20260506003226 69 178 5.2 8.7 0.00 0.00 0.00 65 1017.5
20260506002243 70 195 5.2 7.0 0.00 0.00 0.00 64 1017.1
20260506001327 70 180 6.1 7.8 0.00 0.00 0.00 61 1017.2
20260506000425 71 180 5.2 7.8 0.00 0.00 0.00 60 1017.3
20260505235426 71 180 7.8 10.4 0.00 0.00 0.00 59 1017.2
20260505234426 72 185 5.2 7.8 0.00 0.00 0.00 58 1017.3
20260505233424 73 202 6.1 7.0 0.00 0.00 0.00 57 1017.1
20260505232426 73 211 8.7 12.2 0.00 0.00 0.00 54 1017.0
20260505231440 74 204 5.2 7.0 0.00 0.00 0.00 52 1016.9
20260505225525 76 182 5.2 6.1 0.00 0.00 0.00 46 1016.7
20260505224625 76 176 7.8 11.3 0.00 0.00 0.00 46 1016.8
20260505224541 76 180 7.0 9.6 0.00 0.00 0.00 46 1016.7
20260505223524 77 178 7.0 10.4 0.00 0.00 0.00 45 1016.7
20260505221527 77 178 7.0 7.8 0.00 0.00 0.00 46 1016.5
20260505220525 78 207 10.4 13.0 0.00 0.00 0.00 45 1016.5
20260505220427 78 191 10.4 14.8 0.00 0.00 0.00 44 1016.6
20260505214426 78 180 8.7 12.2 0.00 0.00 0.00 44 1016.7
20260505213525 78 165 5.2 10.4 0.00 0.00 0.00 44 1016.7
20260505212541 78 185 7.8 9.6 0.00 0.00 0.00 44 1016.7
20260505211625 79 169 7.8 8.7 0.00 0.00 0.00 44 1016.7
20260505210625 79 191 9.6 11.3 0.00 0.00 0.00 44 1016.8
20260505205725 79 180 7.8 10.4 0.00 0.00 0.00 43 1016.8
20260505204726 80 183 8.7 12.2 0.00 0.00 0.00 43 1016.8
20260505203727 80 170 7.8 12.2 0.00 0.00 0.00 43 1016.6
20260505203624 80 180 8.7 10.4 0.00 0.00 0.00 43 1016.7
20260505202624 79 202 11.3 13.0 0.00 0.00 0.00 45 1016.6
20260505201625 79 141 7.0 10.4 0.00 0.00 0.00 45 1016.5
20260505200641 79 140 7.0 9.6 0.00 0.00 0.00 46 1016.9
20260505195725 79 197 9.6 12.2 0.00 0.00 0.00 45 1017.1
20260505194727 80 144 4.3 6.1 0.00 0.00 0.00 44 1017.1
20260505193824 80 180 7.0 10.4 0.00 0.00 0.00 44 1017.1
20260505192841 80 207 7.8 9.6 0.00 0.00 0.00 42 1017.4
20260505191825 80 198 5.2 7.8 0.00 0.00 0.00 43 1017.8
20260505190924 80 180 7.8 8.7 0.00 0.00 0.00 43 1017.9
20260505184826 80 175 4.3 5.2 0.00 0.00 0.00 43 1018.3
20260505183825 80 217 2.6 6.1 0.00 0.00 0.00 44 1018.3
20260505182825 79 262 0.9 2.6 0.00 0.00 0.00 44 1018.4
20260505181824 78 206 7.0 8.7 0.00 0.00 0.00 45 1018.2
20260505180825 77 214 2.6 4.3 0.00 0.00 0.00 45 1018.0
20260505174924 79 154 7.0 9.6 0.00 0.00 0.00 44 1018.2
20260505173925 78 264 0.0 0.9 0.00 0.00 0.00 45 1018.3
20260505172926 78 223 1.7 4.3 0.00 0.00 0.00 47 1018.5
20260505171925 77 228 2.6 4.3 0.00 0.00 0.00 46 1018.6
20260505170925 78 180 0.9 3.5 0.00 0.00 0.00 45 1018.6
20260505165025 76 217 0.9 2.6 0.00 0.00 0.00 49 1019.0
20260505164941 76 188 4.3 5.2 0.00 0.00 0.00 48 1019.0
20260505163925 76 154 4.3 6.1 0.00 0.00 0.00 49 1019.2
20260505161926 76 180 5.2 7.0 0.00 0.00 0.00 48 1019.6
20260505161025 75 197 7.0 7.8 0.00 0.00 0.00 51 1019.5
20260505153124 74 180 5.2 6.1 0.00 0.00 0.00 55 1019.8
20260505151224 73 180 3.5 4.3 0.00 0.00 0.00 59 1019.7